When you browse on this site, cookies collect data to enhance your experience and personalize the content and advertising you see.
Visit our Privacy Policy to learn more. By continuing to use the site, you agree to this use of cookies and data.
  • In Österreich
  • Länderverzeichnis
  • Für 7 Tage
  • Wassertemperatur
  • Wetterkarte
  • News
  • Widgets
  • user-avatar
    Anmelden

    Stündliche Wetter Anif

    Heute, 23 September, Montag

    Zeit Temperatur Niederschläge Wind Luftdruck Luftfeuchtigkeit
    00:00 +13°C° 0 mm 1 m/S 689 mmHg 82%
    01:00 +12°C° 0 mm 1 m/S 689 mmHg 83%
    02:00 +12°C° 0 mm 1 m/S 689 mmHg 83%
    03:00 +12°C° 0 mm 1 m/S 689 mmHg 83%
    04:00 +12°C° 0 mm 1 m/S 689 mmHg 83%
    05:00 +13°C° 0 mm 1 m/S 690 mmHg 84%
    06:00 +13°C° 0 mm 1 m/S 690 mmHg 86%
    07:00 +13°C° 0 mm 2 m/S 690 mmHg 87%
    08:00 +13°C° 0.9 mm 2 m/S 690 mmHg 91%
    09:00 +13°C° 0.9 mm 2 m/S 690 mmHg 94%
    10:00 +12°C° 0.9 mm 2 m/S 690 mmHg 98%
    11:00 +12°C° 1.4 mm 2 m/S 691 mmHg 97%
    12:00 +12°C° 1.4 mm 2 m/S 691 mmHg 97%
    13:00 +12°C° 1.4 mm 2 m/S 691 mmHg 97%
    14:00 +12°C° 1 mm 2 m/S 691 mmHg 97%
    15:00 +10°C° 1 mm 2 m/S 691 mmHg 97%
    16:00 +11°C° 1 mm 1 m/S 692 mmHg 97%
    17:00 +11°C° 0.2 mm 1 m/S 692 mmHg 96%
    18:00 +11°C° 0.2 mm 1 m/S 692 mmHg 96%
    19:00 +11°C° 0.2 mm 1 m/S 692 mmHg 96%
    20:00 +11°C° 0.2 mm 1 m/S 692 mmHg 96%
    21:00 +10°C° 0.2 mm 1 m/S 693 mmHg 96%
    22:00 +10°C° 0.2 mm 1 m/S 693 mmHg 96%
    23:00 +10°C° 0.1 mm 1 m/S 693 mmHg 96%

    Morgen, 24 September, Dienstag

    Zeit Temperatur Niederschläge Wind Luftdruck Luftfeuchtigkeit
    00:00 +10°C° 0.1 mm 1 m/S 693 mmHg 95%
    01:00 +10°C° 0.1 mm 1 m/S 693 mmHg 95%
    02:00 +10°C° 0 mm 1 m/S 692 mmHg 95%
    03:00 +9°C° 0 mm 1 m/S 692 mmHg 94%
    04:00 +8°C° 0 mm 1 m/S 692 mmHg 94%
    05:00 +8°C° 0 mm 1 m/S 692 mmHg 94%
    06:00 +9°C° 0 mm 1 m/S 692 mmHg 94%
    07:00 +9°C° 0 mm 1 m/S 692 mmHg 93%
    08:00 +11°C° 0 mm 1 m/S 692 mmHg 85%
    09:00 +14°C° 0 mm 1 m/S 692 mmHg 76%
    10:00 +15°C° 0 mm 0 m/S 692 mmHg 68%
    11:00 +18°C° 0 mm 1 m/S 692 mmHg 62%
    12:00 +19°C° 0 mm 1 m/S 691 mmHg 57%
    13:00 +21°C° 0 mm 1 m/S 691 mmHg 52%
    14:00 +20°C° 0 mm 1 m/S 691 mmHg 57%
    15:00 +19°C° 0 mm 1 m/S 690 mmHg 62%
    16:00 +18°C° 0 mm 1 m/S 690 mmHg 67%
    17:00 +16°C° 0 mm 1 m/S 689 mmHg 75%
    18:00 +14°C° 0 mm 1 m/S 689 mmHg 84%
    19:00 +11°C° 0 mm 0 m/S 689 mmHg 93%
    20:00 +12°C° 0 mm 1 m/S 689 mmHg 92%
    21:00 +12°C° 0 mm 1 m/S 690 mmHg 90%
    22:00 +12°C° 0 mm 1 m/S 690 mmHg 89%
    23:00 +12°C° 0 mm 1 m/S 690 mmHg 89%

    übermorgen, 25 September, Mittwoch

    Zeit Temperatur Niederschläge Wind Luftdruck Luftfeuchtigkeit
    00:00 +12°C° 0 mm 1 m/S 689 mmHg 89%
    01:00 +12°C° 0 mm 1 m/S 689 mmHg 89%
    02:00 +12°C° 0 mm 1 m/S 689 mmHg 89%
    03:00 +12°C° 0 mm 1 m/S 689 mmHg 88%
    04:00 +12°C° 0 mm 1 m/S 689 mmHg 88%
    05:00 +12°C° 0.3 mm 1 m/S 689 mmHg 90%
    06:00 +12°C° 0.3 mm 1 m/S 689 mmHg 92%
    07:00 +12°C° 0.3 mm 1 m/S 688 mmHg 94%
    08:00 +12°C° 0.7 mm 1 m/S 689 mmHg 94%
    09:00 +13°C° 0.7 mm 1 m/S 689 mmHg 94%
    10:00 +13°C° 0.7 mm 1 m/S 689 mmHg 94%
    11:00 +13°C° 0.8 mm 1 m/S 689 mmHg 94%
    12:00 +12°C° 0.8 mm 1 m/S 688 mmHg 94%
    13:00 +12°C° 0.8 mm 1 m/S 688 mmHg 94%
    14:00 +11°C° 1.3 mm 1 m/S 688 mmHg 95%
    15:00 +11°C° 1.3 mm 1 m/S 688 mmHg 95%
    16:00 +10°C° 1.3 mm 1 m/S 688 mmHg 96%
    17:00 +10°C° 0.6 mm 1 m/S 689 mmHg 96%
    18:00 +10°C° 0.6 mm 1 m/S 689 mmHg 95%
    19:00 +10°C° 0.6 mm 1 m/S 690 mmHg 95%
    20:00 +9°C° 0.4 mm 2 m/S 690 mmHg 95%
    21:00 +9°C° 0.4 mm 2 m/S 690 mmHg 95%
    22:00 +9°C° 0.4 mm 2 m/S 690 mmHg 95%
    23:00 +9°C° 0 mm 2 m/S 690 mmHg 94%

    26 September, Donnerstag

    Zeit Temperatur Niederschläge Wind Luftdruck Luftfeuchtigkeit
    00:00 +10°C° 0 mm 1 m/S 690 mmHg 93%
    01:00 +10°C° 0 mm 1 m/S 691 mmHg 92%
    02:00 +10°C° 0 mm 1 m/S 691 mmHg 91%
    03:00 +10°C° 0 mm 1 m/S 691 mmHg 91%
    04:00 +10°C° 0 mm 1 m/S 691 mmHg 90%
    05:00 +10°C° 0.1 mm 1 m/S 691 mmHg 90%
    06:00 +10°C° 0.1 mm 1 m/S 691 mmHg 91%
    07:00 +10°C° 0.1 mm 1 m/S 691 mmHg 92%
    08:00 +10°C° 0.3 mm 1 m/S 691 mmHg 92%
    09:00 +11°C° 0.3 mm 1 m/S 692 mmHg 93%
    10:00 +11°C° 0.3 mm 1 m/S 692 mmHg 93%
    11:00 +11°C° 0.3 mm 1 m/S 692 mmHg 94%
    12:00 +11°C° 0.3 mm 1 m/S 692 mmHg 94%
    13:00 +11°C° 0.3 mm 1 m/S 692 mmHg 95%
    14:00 +12°C° 0.2 mm 1 m/S 692 mmHg 94%
    15:00 +12°C° 0.2 mm 1 m/S 692 mmHg 94%
    16:00 +12°C° 0.2 mm 1 m/S 692 mmHg 94%
    17:00 +12°C° 0 mm 1 m/S 692 mmHg 93%
    18:00 +12°C° 0 mm 1 m/S 693 mmHg 92%
    19:00 +12°C° 0 mm 1 m/S 693 mmHg 91%
    20:00 +11°C° 0 mm 1 m/S 693 mmHg 91%
    21:00 +11°C° 0 mm 1 m/S 693 mmHg 90%
    22:00 +11°C° 0 mm 1 m/S 694 mmHg 90%
    23:00 +11°C° 0 mm 1 m/S 693 mmHg 90%

    27 September, Freitag

    Zeit Temperatur Niederschläge Wind Luftdruck Luftfeuchtigkeit
    00:00 +10°C° 0 mm 1 m/S 693 mmHg 90%
    01:00 +10°C° 0 mm 1 m/S 693 mmHg 90%
    02:00 +10°C° 0 mm 1 m/S 693 mmHg 89%
    03:00 +11°C° 0 mm 1 m/S 693 mmHg 88%
    04:00 +11°C° 0 mm 1 m/S 693 mmHg 87%
    05:00 +11°C° 0 mm 1 m/S 693 mmHg 87%
    06:00 +11°C° 0 mm 1 m/S 693 mmHg 87%
    07:00 +11°C° 0 mm 1 m/S 693 mmHg 87%
    08:00 +14°C° 0 mm 1 m/S 693 mmHg 78%
    09:00 +16°C° 0 mm 1 m/S 694 mmHg 70%
    10:00 +20°C° 0 mm 1 m/S 694 mmHg 61%
    11:00 +21°C° 0 mm 1 m/S 694 mmHg 59%
    12:00 +22°C° 0 mm 1 m/S 694 mmHg 58%
    13:00 +21°C° 0 mm 2 m/S 693 mmHg 56%
    14:00 +20°C° 0.1 mm 2 m/S 693 mmHg 64%
    15:00 +20°C° 0.1 mm 1 m/S 692 mmHg 71%
    16:00 +19°C° 0.1 mm 1 m/S 692 mmHg 78%
    17:00 +18°C° 0.2 mm 1 m/S 692 mmHg 84%
    18:00 +15°C° 0.2 mm 1 m/S 692 mmHg 89%
    19:00 +13°C° 0.2 mm 0 m/S 692 mmHg 94%
    20:00 +13°C° 0.1 mm 0 m/S 692 mmHg 94%
    21:00 +13°C° 0.1 mm 0 m/S 692 mmHg 93%
    22:00 +13°C° 0.1 mm 0 m/S 693 mmHg 93%
    23:00 +13°C° 0.1 mm 0 m/S 692 mmHg 93%

    28 September, Samstag

    Zeit Temperatur Niederschläge Wind Luftdruck Luftfeuchtigkeit
    00:00 +12°C° 0.1 mm 0 m/S 692 mmHg 94%
    01:00 +12°C° 0.1 mm 0 m/S 692 mmHg 94%
    02:00 +12°C° 0.1 mm 0 m/S 692 mmHg 94%
    03:00 +13°C° 0.1 mm 1 m/S 692 mmHg 95%
    04:00 +13°C° 0.1 mm 1 m/S 692 mmHg 95%
    05:00 +13°C° 1.3 mm 1 m/S 692 mmHg 96%
    06:00 +13°C° 1.3 mm 1 m/S 692 mmHg 97%
    07:00 +13°C° 1.3 mm 1 m/S 692 mmHg 98%
    08:00 +13°C° 1.3 mm 1 m/S 692 mmHg 97%
    09:00 +13°C° 1.3 mm 1 m/S 692 mmHg 97%
    10:00 +13°C° 1.3 mm 1 m/S 692 mmHg 97%
    11:00 +13°C° 0.2 mm 1 m/S 692 mmHg 96%
    12:00 +13°C° 0.2 mm 1 m/S 692 mmHg 95%
    13:00 +13°C° 0.2 mm 1 m/S 692 mmHg 94%
    14:00 +13°C° 0 mm 1 m/S 692 mmHg 93%
    15:00 +13°C° 0 mm 1 m/S 692 mmHg 92%
    16:00 +13°C° 0 mm 1 m/S 691 mmHg 91%
    17:00 +13°C° 0 mm 1 m/S 691 mmHg 91%
    18:00 +12°C° 0 mm 1 m/S 692 mmHg 90%
    19:00 +12°C° 0 mm 1 m/S 692 mmHg 90%
    20:00 +12°C° 0 mm 1 m/S 692 mmHg 89%
    21:00 +12°C° 0 mm 1 m/S 692 mmHg 88%
    22:00 +12°C° 0 mm 1 m/S 692 mmHg 87%
    23:00 +12°C° 0 mm 1 m/S 692 mmHg 86%
    Mehr zeigen